Hourly Data Report for September 27, 2017

All times are specified in Local Standard Time (LST). Add 1 hour to adjust for Daylight Saving Time where and when it is observed.

SUSSEX FOUR CORNERS
NEW BRUNSWICK

45°44'30.048" N
65°31'44.039" W
47.00 m
8105210
71656
ASF

Download Data

Hourly Data (September 2017)
Hourly Data Report for September 27, 2017
Temp Definition
°C
Dew Point Temp Definition
°C
Rel Hum Definition
%
Wind Dir Definition
10's deg

Wind Spd Definition
km/h
Visibility Definition
km
Stn Press Definition
kPa
Hmdx Definition


Wind Chill Definition


Weather Definition


TIME
00:00 15.1 13.8 92 5 10   100.96     LegendNANA
01:00 15.5 14.0 91 4 11   100.96     LegendNANA
02:00 15.1 13.9 93 3 14   100.96     LegendNANA
03:00 14.6 13.7 94 3 13   100.88     LegendNANA
04:00 14.0 13.1 95 3 16   100.89     LegendNANA
05:00 13.6 13.1 97 3 11   100.86     LegendNANA
06:00 13.7 13.0 96 4 11   100.81     LegendNANA
07:00 13.9 13.4 97 4 6   100.77     LegendNANA
08:00 14.7 13.9 95 2 4   100.76     LegendNANA
09:00 16.6 15.1 90 4 2   100.70     LegendNANA
10:00 19.8 17.3 85 20 7   100.64     LegendNANA
11:00 20.6 18.1 85 19 13   100.61 27   LegendNANA
12:00 20.9 18.5 86 20 16   100.57 27   LegendNANA
13:00 21.9 18.6 82 20 22   100.47 28   LegendNANA
14:00 22.6 19.1 80 19 18   100.38 29   LegendNANA
15:00 21.8 18.6 82 20 24   100.33 28   LegendNANA
16:00 20.9 18.5 86 19 29   100.29 27   LegendNANA
17:00 20.3 18.5 90 19 22   100.19 27   LegendNANA
18:00 19.5 17.9 90 20 22   100.13     LegendNANA
19:00 18.6 17.4 93 21 21   100.12     LegendNANA
20:00 18.7 17.5 93 20 15   100.09     LegendNANA
21:00 19.7 18.8 94 22 17   99.98     LegendNANA
22:00 19.9 19.3 96 19 26   99.89     LegendNANA
23:00 19.9 19.2 95 22 28   99.89     LegendNANA

Notes on Data Quality.

Legend

  • E = Estimated
  • M = Missing
  • NA = Not Available
  • ‡ = Partner data that is not subject to review by the National Climate Archives
Date modified: